• In Latvia
  • List of Countries
  • For 7 days
  • Water Temperature
  • Satellite Maps
  • Weather Map
  • Weather Widgets
  • user-avatar
    Login

    Hourly Weather Kuldiga

    Today, 20 September, Thursday

    Time Temperature Precipitation Wind Pressure Humidity
    00:00 +15°C° 0 mm 4 mps 758 mmHg 96%
    01:00 +15°C° 0 mm 4 mps 758 mmHg 96%
    02:00 +15°C° 0 mm 4 mps 758 mmHg 96%
    03:00 +14°C° 0 mm 4 mps 758 mmHg 95%
    04:00 +14°C° 0 mm 4 mps 758 mmHg 95%
    05:00 +15°C° 0 mm 4 mps 758 mmHg 91%
    06:00 +16°C° 0 mm 5 mps 758 mmHg 87%
    07:00 +17°C° 0 mm 5 mps 758 mmHg 82%
    08:00 +19°C° 0 mm 5 mps 758 mmHg 77%
    09:00 +21°C° 0 mm 6 mps 758 mmHg 72%
    10:00 +22°C° 0 mm 6 mps 758 mmHg 67%
    11:00 +23°C° 0 mm 6 mps 758 mmHg 65%
    12:00 +23°C° 0 mm 6 mps 758 mmHg 63%
    13:00 +23°C° 0 mm 6 mps 758 mmHg 60%
    14:00 +22°C° 0 mm 5 mps 758 mmHg 63%
    15:00 +22°C° 0 mm 5 mps 758 mmHg 67%
    16:00 +21°C° 0 mm 5 mps 758 mmHg 70%
    17:00 +20°C° 0 mm 4 mps 758 mmHg 76%
    18:00 +18°C° 0 mm 4 mps 758 mmHg 83%
    19:00 +17°C° 0 mm 4 mps 758 mmHg 90%
    20:00 +17°C° 0 mm 4 mps 758 mmHg 90%
    21:00 +17°C° 0 mm 4 mps 757 mmHg 90%
    22:00 +15°C° 0 mm 4 mps 757 mmHg 90%
    23:00 +15°C° 0 mm 4 mps 757 mmHg 90%

    Tomorrow, 21 September, Friday

    Time Temperature Precipitation Wind Pressure Humidity
    00:00 +15°C° 0 mm 4 mps 757 mmHg 90%
    01:00 +16°C° 0 mm 3 mps 757 mmHg 90%
    02:00 +16°C° 0 mm 3 mps 757 mmHg 89%
    03:00 +16°C° 0 mm 3 mps 757 mmHg 87%
    04:00 +15°C° 0 mm 4 mps 756 mmHg 86%
    05:00 +17°C° 0 mm 4 mps 756 mmHg 84%
    06:00 +17°C° 0 mm 5 mps 756 mmHg 82%
    07:00 +19°C° 0 mm 5 mps 755 mmHg 79%
    08:00 +21°C° 0 mm 6 mps 755 mmHg 73%
    09:00 +23°C° 0 mm 6 mps 755 mmHg 67%
    10:00 +26°C° 0 mm 7 mps 754 mmHg 61%
    11:00 +26°C° 0 mm 7 mps 754 mmHg 58%
    12:00 +27°C° 0 mm 8 mps 753 mmHg 55%
    13:00 +27°C° 0 mm 8 mps 753 mmHg 51%
    14:00 +27°C° 0 mm 8 mps 752 mmHg 53%
    15:00 +26°C° 0 mm 7 mps 751 mmHg 54%
    16:00 +24°C° 0 mm 7 mps 751 mmHg 55%
    17:00 +23°C° 0 mm 7 mps 750 mmHg 54%
    18:00 +23°C° 0 mm 7 mps 749 mmHg 53%
    19:00 +22°C° 0 mm 8 mps 748 mmHg 52%
    20:00 +21°C° 0.1 mm 8 mps 749 mmHg 58%
    21:00 +18°C° 0.1 mm 8 mps 749 mmHg 64%
    22:00 +17°C° 0.1 mm 8 mps 749 mmHg 70%
    23:00 +15°C° 0.7 mm 7 mps 749 mmHg 75%

    Day after tomorrow, 22 September, Saturday

    Time Temperature Precipitation Wind Pressure Humidity
    00:00 +14°C° 0.7 mm 7 mps 750 mmHg 81%
    01:00 +11°C° 0.7 mm 6 mps 750 mmHg 86%
    02:00 +11°C° 0.1 mm 6 mps 750 mmHg 83%
    03:00 +11°C° 0.1 mm 6 mps 750 mmHg 81%
    04:00 +11°C° 0.1 mm 6 mps 750 mmHg 79%
    05:00 +11°C° 0.1 mm 7 mps 750 mmHg 78%
    06:00 +11°C° 0.1 mm 7 mps 751 mmHg 78%
    07:00 +12°C° 0.1 mm 8 mps 751 mmHg 77%
    08:00 +12°C° 0.4 mm 8 mps 751 mmHg 74%
    09:00 +13°C° 0.4 mm 8 mps 751 mmHg 72%
    10:00 +13°C° 0.4 mm 8 mps 751 mmHg 69%
    11:00 +13°C° 0.1 mm 8 mps 752 mmHg 64%
    12:00 +15°C° 0.1 mm 8 mps 752 mmHg 59%
    13:00 +15°C° 0.1 mm 8 mps 752 mmHg 54%
    14:00 +15°C° 0 mm 8 mps 752 mmHg 55%
    15:00 +14°C° 0 mm 7 mps 753 mmHg 57%
    16:00 +14°C° 0 mm 7 mps 753 mmHg 59%
    17:00 +13°C° 0 mm 6 mps 753 mmHg 62%
    18:00 +11°C° 0 mm 6 mps 752 mmHg 66%
    19:00 +10°C° 0 mm 6 mps 752 mmHg 70%
    20:00 +10°C° 0.5 mm 6 mps 752 mmHg 75%
    21:00 +10°C° 0.5 mm 6 mps 752 mmHg 79%
    22:00 +10°C° 0.5 mm 6 mps 751 mmHg 83%
    23:00 +10°C° 0.4 mm 6 mps 751 mmHg 84%

    23 September, Sunday

    Time Temperature Precipitation Wind Pressure Humidity
    00:00 +9°C° 0.4 mm 6 mps 751 mmHg 85%
    01:00 +9°C° 0.4 mm 5 mps 750 mmHg 86%
    02:00 +9°C° 0.4 mm 6 mps 750 mmHg 86%
    03:00 +9°C° 0.4 mm 6 mps 750 mmHg 86%
    04:00 +9°C° 0.4 mm 6 mps 750 mmHg 86%
    05:00 +9°C° 0.6 mm 6 mps 750 mmHg 85%
    06:00 +9°C° 0.6 mm 6 mps 749 mmHg 84%
    07:00 +9°C° 0.6 mm 6 mps 749 mmHg 83%
    08:00 +10°C° 0.6 mm 7 mps 750 mmHg 81%
    09:00 +11°C° 0.6 mm 7 mps 750 mmHg 79%
    10:00 +12°C° 0.6 mm 7 mps 751 mmHg 77%
    11:00 +12°C° 0.4 mm 7 mps 751 mmHg 76%
    12:00 +13°C° 0.4 mm 6 mps 751 mmHg 75%
    13:00 +14°C° 0.4 mm 6 mps 752 mmHg 74%
    14:00 +13°C° 0.3 mm 5 mps 752 mmHg 76%
    15:00 +13°C° 0.3 mm 4 mps 752 mmHg 78%
    16:00 +12°C° 0.3 mm 4 mps 752 mmHg 80%
    17:00 +11°C° 0.1 mm 3 mps 752 mmHg 84%
    18:00 +10°C° 0.1 mm 3 mps 752 mmHg 88%
    19:00 +9°C° 0.1 mm 2 mps 752 mmHg 91%
    20:00 +9°C° 0.1 mm 2 mps 751 mmHg 92%
    21:00 +9°C° 0.1 mm 2 mps 751 mmHg 92%
    22:00 +8°C° 0.1 mm 2 mps 751 mmHg 93%
    23:00 +8°C° 0 mm 2 mps 750 mmHg 93%

    24 September, Monday

    Time Temperature Precipitation Wind Pressure Humidity
    00:00 +8°C° 0 mm 3 mps 750 mmHg 92%
    01:00 +8°C° 0 mm 3 mps 749 mmHg 92%
    02:00 +8°C° 0 mm 3 mps 748 mmHg 91%
    03:00 +8°C° 0 mm 3 mps 748 mmHg 91%
    04:00 +8°C° 0 mm 3 mps 747 mmHg 91%
    05:00 +7°C° 0.3 mm 4 mps 747 mmHg 90%
    06:00 +7°C° 0.3 mm 4 mps 746 mmHg 90%
    07:00 +7°C° 0.3 mm 5 mps 745 mmHg 90%
    08:00 +7°C° 1.4 mm 6 mps 744 mmHg 90%
    09:00 +7°C° 1.4 mm 6 mps 743 mmHg 90%
    10:00 +6°C° 1.4 mm 7 mps 742 mmHg 90%
    11:00 +6°C° 3.2 mm 8 mps 742 mmHg 90%
    12:00 +6°C° 3.2 mm 8 mps 742 mmHg 90%
    13:00 +6°C° 3.2 mm 9 mps 742 mmHg 90%
    14:00 +6°C° 1.7 mm 9 mps 742 mmHg 90%
    15:00 +6°C° 1.7 mm 9 mps 742 mmHg 90%
    16:00 +6°C° 1.7 mm 10 mps 742 mmHg 89%
    17:00 +6°C° 1.6 mm 10 mps 743 mmHg 89%
    18:00 +6°C° 1.6 mm 10 mps 743 mmHg 88%
    19:00 +6°C° 1.6 mm 10 mps 744 mmHg 87%
    20:00 +6°C° 0.3 mm 9 mps 745 mmHg 86%
    21:00 +6°C° 0.3 mm 9 mps 745 mmHg 84%
    22:00 +6°C° 0.3 mm 8 mps 746 mmHg 83%
    23:00 +6°C° 0.2 mm 8 mps 747 mmHg 82%

    25 September, Tuesday

    Time Temperature Precipitation Wind Pressure Humidity
    00:00 +6°C° 0.2 mm 8 mps 747 mmHg 81%
    01:00 +6°C° 0.2 mm 8 mps 748 mmHg 81%
    02:00 +6°C° 0.1 mm 8 mps 749 mmHg 79%
    03:00 +5°C° 0.1 mm 8 mps 749 mmHg 77%
    04:00 +5°C° 0.1 mm 8 mps 750 mmHg 75%
    05:00 +5°C° 0.1 mm 8 mps 751 mmHg 73%
    06:00 +5°C° 0.1 mm 8 mps 751 mmHg 70%
    07:00 +6°C° 0.1 mm 8 mps 752 mmHg 67%
    08:00 +7°C° 0.1 mm 9 mps 753 mmHg 63%
    09:00 +7°C° 0.1 mm 9 mps 753 mmHg 58%
    10:00 +8°C° 0.1 mm 10 mps 754 mmHg 53%
    11:00 +8°C° 0.2 mm 10 mps 755 mmHg 52%
    12:00 +8°C° 0.2 mm 10 mps 755 mmHg 51%
    13:00 +9°C° 0.2 mm 10 mps 756 mmHg 50%
    14:00 +8°C° 0.3 mm 9 mps 756 mmHg 54%
    15:00 +7°C° 0.3 mm 9 mps 757 mmHg 58%
    16:00 +7°C° 0.3 mm 8 mps 757 mmHg 62%
    17:00 +6°C° 0.2 mm 8 mps 758 mmHg 65%
    18:00 +6°C° 0.2 mm 8 mps 758 mmHg 68%
    19:00 +5°C° 0.2 mm 7 mps 759 mmHg 71%
    20:00 +5°C° 0.1 mm 7 mps 759 mmHg 72%
    21:00 +5°C° 0.1 mm 6 mps 760 mmHg 73%
    22:00 +5°C° 0.1 mm 6 mps 760 mmHg 74%
    23:00 +6°C° 0 mm 5 mps 760 mmHg 75%
    Show more